Location: Ermatingen
(47.6706°N, 9.0857°E)
Time: 05:56:22
(UTC+00:00)

Cosmos 1634 Rocket - Pass Details

Date: 18 September 2020
Orbit: 961 x 991 km, 82.9° (Epoch: 22 October)

Event Time Altitude Azimuth Distance (km) Brightness Sun altitude
Exits shadow 19:34:25 37° 137° (SE) 1,444 4.4 -21.1°
Maximum altitude 19:36:18 49° 91° (E) 1,221 4.1 -21.4°
Drops below altitude 10° 19:42:14 10° 18° (NNE) 2,715 6.4 -22.3°
Sets 19:44:49 0° 14° (NNE) 3,669 7.2 -22.6°
